User: anonymous   Login
Location: Chèvreville
(49.1099°N, 2.8495°E)
Time: 17:38:32
(UTC+00:00)
Language:

Cosmos 1763 Rocket - Orbit

View from above orbital plane
View from above orbital plane
View from above satellite
View from above satellite

Ground track
Ground track

The orbit data is extracted from the following two-line orbital elements,

1 16864U 86052B   23152.90726124  .00000228  00000-0  78821-4 0  9992
2 16864  74.0306  27.8986 0033373 310.4158  49.4086 14.40992168935976
Epoch (UTC): 01 June 2023 21:46:27
Eccentricity: 0.0033373
inclination: 74.0306°
perigee height: 731 km
apogee height: 779 km
right ascension of ascending node: 27.8986°
argument of perigee: 310.4158°
revolutions per day: 14.40992168
mean anomaly at epoch: 49.4086°
orbit number at epoch: 93597

The dashed part of the orbit path shows where the satellite is in the earth's shadow,  

DLR